Погода в Семисотке

Россия / Республика Крым     45°14′34″N   35°33′35″E
темп.,
°C
ветер,
м/с
пор.,
м/с
влажн.,
%
обл.,
%
осадки,
мм/ч
давл.,
гПа
погр.,
м
19 сентября, вс
вс1900:00+20ю7117998 0.1 1010497
03:00+19ю698536 0.1 1010345
06:00+19ю5887100 0.3 1009274
09:00+22ююз576745 0.4 1009448
12:00+20юз347895 0.9 1010470
15:00+21юз2374100 4.2 1009501
18:00+21ссв227365 1.6 1009119
21:00+19з58721 1.8 1010226
20 сентября, пн
пн2000:00+18зсз487251 0.0 1011254
03:00+17з46720 0.0 1011154
06:00+16юз23635 0.0 101274
09:00+21зюз13505 0.0 1012521
12:00+22зсз14516 0.0 10121085
15:00+21ссз2464100 0.1 1012369
18:00+19ссв447287 0.2 1012197
21:00+18ссз117162 0.2 101480
21 сентября, вт
вт2100:00+18с236223 0.0 1014169
03:00+18ссв346583 0.0 1013212
06:00+17с6767100 0.2 1014484
09:00+14с5685100 1.0 1014562
12:00+14сз8988100 2.3 1015748
15:00+16сз795852 2.5 10151309
18:00+16зсз910490 0.0 10161101
21:00+14сз9105974 0.0 1018846
22 сентября, ср
ср2200:00+12сз897085 0.1 10191043
03:00+11зсз686953 0.2 1019836
06:00+11зсз5765100 0.0 1018470
09:00+12сз5660100 0.0 1018738
12:00+12зсз5567100 0.1 1018822
15:00+13сз465555 0.1 10171210
18:00+13сз3455100 0.0 1016578
21:00+12ссз2259100 0.0 1016329
23 сентября, чт
чт2300:00+13сз2360100 0.0 1015349
03:00+12зсз3464100 0.0 1014401
06:00+12сз3571100 0.1 1013476
09:00+13сз5570100 0.3 1013748
12:00+15с6558100 0.1 10131242
15:00+14с555910 0.1 1013931
18:00+14ссз56595 0.0 1013952
21:00+13сз565848 0.0 1014571